sat.trackr.live / text

‹ back to catalog

STARLINK-35162

NORAD 65613 · 2025-207X

PAYLOAD ACTIVE UNKNOWN

§ Identity

Operator
Country
US
Launch date
2025-09-13
Launch site
AFWTR
Launch vehicle
Mass (kg)
RCS (m²)

Purposes: comms

External: N2YO · Heavens-Above · Gunter

§ Orbital elements

Epoch: 2026-05-25T04:27:32.479776Z

Period
95.64 min
Inclination
97.4510°
Eccentricity
0.0002666
Mean motion
15.05665802 rev/d
Perigee alt
547.6 km
Apogee alt
551.3 km
Semi-major
6,927.6 km
B*
4.3744e-4
RAAN
213.7248°
Arg perigee
131.5469°
Mean anomaly
228.5987°
Rev number
3,977

§ Raw data

STARLINK-351621 65613U 25207X   26145.18579259  .00006262  00000+0  43744-3 0  99912 65613  97.4510 213.7248 0002666 131.5469 228.5987 15.05665802 39770

JSON: /api/v1/satellites/65613 · /tle

For live sub-satellite position, see the globe view (requires WebGL).

§ Visibility from observer

Set your observer location to see the next 7 days of passes ≥ 10°. The values pass through the URL so the page stays shareable.

No JS? Fill the form by hand. The geolocation button needs JavaScript.